Date,TemperatureHighF,TemperatureAvgF,TemperatureLowF,DewpointHighF,DewpointAvgF,DewpointLowF,HumidityHigh,HumidityAvg,HumidityLow,PressureMaxIn,PressureMinIn,WindSpeedMaxMPH,WindSpeedAvgMPH,GustSpeedMaxMPH,PrecipitationSumIn
2013-1-1,49.9,46.1,42.8,49.1,44.9,39.3,97,95,87,30.12,30.00,5,0,10,0.74
2013-1-2,39.2,38.8,37.9,35.6,35.1,34.1,87,86,85,30.25,30.21,4,0,6,0.00
2013-1-3,46.5,37.4,27.8,34.1,29.8,25.8,93,75,46,30.44,30.21,9,1,9,0.00
2013-1-4,48.5,33.7,23.9,30.7,26.0,22.2,95,76,37,30.51,30.41,8,0,10,0.00
2013-1-5,49.5,37.6,24.8,39.4,29.7,23.1,100,76,43,30.48,30.30,4,0,5,0.06
2013-1-6,50.5,42.4,35.2,40.9,37.5,30.9,97,84,60,30.37,30.19,8,1,11,0.01
2013-1-7,53.2,38.5,27.2,35.6,30.4,25.1,93,75,44,30.45,30.33,10,1,12,0.00
2013-1-8,60.5,43.1,28.5,46.0,37.1,26.7,95,81,53,30.43,30.30,7,0,8,0.00
2013-1-9,58.0,52.5,46.3,56.9,50.9,43.1,97,94,88,30.45,30.35,7,0,8,0.13
2013-1-10,65.3,58.9,53.9,61.0,56.2,53.1,97,91,80,30.44,30.10,13,1,19,0.00
2013-1-11,67.9,64.8,62.7,64.0,62.3,60.5,98,92,81,30.14,30.05,10,1,11,0.35
2013-1-12,69.6,65.9,62.3,66.6,63.4,59.8,98,92,76,30.11,29.97,8,0,11,0.03
2013-1-13,70.1,62.4,45.0,64.7,59.4,41.1,97,90,80,30.15,29.92,12,2,18,1.43
2013-1-14,45.2,41.4,37.4,43.1,39.5,35.0,97,93,86,30.31,30.13,12,2,15,1.28
2013-1-15,45.8,42.4,39.6,45.0,41.4,38.0,100,96,92,30.22,29.99,9,1,13,1.25
2013-1-16,45.4,43.2,41.1,44.3,41.6,38.4,98,94,89,30.11,29.97,9,1,13,0.09
2013-1-17,46.3,41.7,32.9,41.2,35.2,29.4,94,78,67,30.42,29.86,17,4,23,0.06
2013-1-18,51.0,37.8,28.5,33.9,29.1,14.3,96,75,23,30.61,30.42,7,0,8,0.00
2013-1-19,55.1,38.1,26.2,36.8,30.8,24.7,96,78,41,30.48,30.25,9,1,15,0.01
2013-1-20,60.2,42.7,29.0,42.0,33.9,27.7,100,74,37,30.28,30.16,9,1,11,0.00
2013-1-21,47.4,36.2,28.2,32.1,23.9,16.8,95,65,32,30.31,30.16,10,1,13,0.00
2013-1-22,37.9,31.9,25.7,20.0,13.9,8.7,77,48,31,30.44,30.30,10,1,14,0.00
2013-1-23,51.2,39.5,32.7,36.0,24.9,15.2,85,57,42,30.43,30.21,10,1,12,0.00
2013-1-24,49.9,41.0,33.3,41.3,23.3,11.5,84,51,31,30.42,30.22,13,2,14,0.00
2013-1-25,41.4,38.3,34.8,39.9,33.2,11.9,96,84,37,30.38,30.15,5,0,5,0.29
2013-1-26,51.6,40.0,31.6,39.4,34.4,29.9,96,81,58,30.38,30.24,7,1,9,0.00
2013-1-27,52.8,44.3,31.2,41.1,36.1,29.4,93,74,59,30.45,30.35,5,0,8,0.00
2013-1-28,60.5,51.7,43.2,53.3,46.1,37.7,92,81,75,30.39,30.24,6,0,8,0.00
2013-1-29,70.0,56.4,45.4,63.1,53.6,44.1,96,90,77,30.24,29.81,13,1,17,0.00
2013-1-30,71.3,56.4,38.8,65.7,52.2,26.7,97,86,61,29.91,29.55,22,3,23,1.63
2013-1-31,47.5,39.4,34.1,33.2,27.6,23.9,87,64,42,30.17,29.90,13,1,19,0.00
2013-2-1,47.1,31.6,23.6,35.7,18.0,10.0,81,58,34,30.49,30.14,26,2,26,0.00
2013-2-2,36.7,29.4,22.3,32.2,25.8,18.8,95,86,68,30.43,30.16,6,0,8,0.06
2013-2-3,53.9,39.5,26.9,40.0,30.6,25.5,97,74,39,30.21,30.07,18,2,18,0.00
2013-2-4,51.7,39.3,27.1,36.7,31.0,25.1,94,74,48,30.19,30.01,6,0,9,0.00
2013-2-5,61.4,48.3,39.1,48.4,42.5,35.3,96,81,60,30.09,29.96,7,0,10,0.03
2013-2-6,65.1,48.1,33.0,42.8,37.7,31.7,97,71,38,30.23,30.09,8,0,8,0.00
2013-2-7,58.2,49.5,44.2,47.8,43.2,38.8,95,79,55,30.16,29.97,7,0,10,0.00
2013-2-8,52.4,45.7,37.9,48.5,40.7,31.0,97,83,64,30.31,29.94,16,2,17,0.08
2013-2-9,59.6,44.3,30.9,37.8,31.5,25.6,89,64,28,30.38,30.24,8,1,11,0.00
2013-2-10,56.8,50.4,43.9,52.6,42.9,32.9,97,78,41,30.25,30.00,14,1,15,0.58
2013-2-11,58.4,53.3,43.2,54.9,46.0,33.2,97,78,43,30.19,30.00,7,0,9,0.03
2013-2-12,53.8,46.5,36.7,42.5,37.5,32.7,94,73,46,30.20,29.84,11,1,12,0.07
2013-2-13,47.7,44.2,41.7,45.5,40.3,35.5,97,86,78,30.06,29.72,12,1,15,0.05
2013-2-14,56.4,44.3,32.9,41.6,36.7,30.4,93,76,53,30.14,30.04,9,1,11,0.00
2013-2-15,58.7,42.5,30.8,44.5,34.9,29.5,97,76,48,30.15,30.06,14,1,16,0.00
2013-2-16,39.9,34.0,23.9,30.0,22.2,15.8,80,63,40,30.25,30.10,13,3,17,0.00
2013-2-17,46.8,32.6,17.9,26.9,19.6,14.4,94,63,31,30.36,30.25,13,1,13,0.00
2013-2-18,61.1,44.8,25.1,40.6,29.5,22.4,91,59,37,30.35,30.00,16,3,21,0.06
2013-2-19,54.9,45.7,32.1,45.7,31.8,16.9,97,64,28,30.26,29.97,15,2,20,0.51
2013-2-20,42.6,34.7,25.5,26.3,21.7,17.8,92,61,39,30.32,30.22,11,1,13,0.00
2013-2-21,56.4,41.8,29.3,44.1,28.2,17.2,95,63,23,30.26,29.96,12,1,13,0.56
2013-2-22,51.2,48.3,46.3,48.6,45.9,44.1,96,91,85,30.11,30.01,4,0,6,0.22
2013-2-23,55.7,48.3,37.9,50.4,45.8,36.3,97,91,80,30.05,29.88,8,0,9,0.09
2013-2-24,60.2,44.6,30.8,38.7,33.3,28.8,100,69,33,30.12,29.99,10,1,11,0.00
2013-2-25,56.7,48.9,38.5,45.3,34.3,27.3,90,58,41,30.04,29.74,14,2,15,0.18
2013-2-26,50.1,46.7,40.5,46.4,42.1,36.0,94,84,66,29.80,29.52,14,2,18,0.45
2013-2-27,55.2,45.4,39.6,39.5,35.7,29.7,90,69,51,29.93,29.80,14,2,18,0.01
2013-2-28,41.4,39.2,37.2,33.4,29.8,27.1,76,69,63,30.08,29.89,10,1,13,0.00
2013-3-1,40.8,38.0,35.0,33.4,31.6,28.6,91,78,69,30.08,30.03,9,1,13,0.01
2013-3-2,38.0,35.7,32.5,33.0,29.5,24.8,92,78,69,30.15,30.02,11,2,12,0.00
2013-3-3,41.4,33.7,27.7,26.0,22.7,20.1,86,65,44,30.18,30.12,11,2,14,0.00
2013-3-4,55.0,42.8,27.8,38.4,28.8,23.3,86,60,37,30.24,29.99,8,1,9,0.00
2013-3-5,57.2,49.4,33.9,55.7,44.2,26.5,97,82,63,30.01,29.64,19,2,25,1.23
2013-3-6,42.4,37.1,34.3,31.6,27.3,22.7,77,68,60,30.31,30.00,19,4,25,0.00
2013-3-7,52.8,40.8,34.0,36.0,30.9,27.4,81,68,50,30.40,30.28,12,3,14,0.00
2013-3-8,62.4,43.8,28.8,33.7,28.1,11.1,90,61,14,30.42,30.28,15,2,15,0.00
2013-3-9,63.6,51.5,38.4,40.0,34.8,30.8,78,55,34,30.33,30.14,8,0,9,0.00
2013-3-10,71.6,61.1,47.1,45.9,39.6,35.3,77,48,28,30.16,29.95,18,3,20,0.00
2013-3-11,66.1,55.3,41.9,54.4,48.3,35.9,96,79,48,29.97,29.75,12,2,19,1.22
2013-3-12,57.5,45.6,38.8,36.8,33.5,30.3,83,64,40,30.18,29.95,11,2,16,0.00
2013-3-13,48.6,40.2,31.0,32.7,26.8,21.7,92,61,36,30.40,30.16,15,2,19,0.00
2013-3-14,55.5,39.7,26.0,38.4,24.4,13.7,88,59,19,30.47,30.29,10,1,12,0.03
2013-3-15,75.0,51.5,31.7,49.5,40.7,30.2,96,71,37,30.31,29.96,13,1,14,0.01
2013-3-16,77.6,63.2,51.9,53.3,47.8,45.3,79,59,36,29.97,29.82,17,2,17,0.00
2013-3-17,71.2,62.4,0.0,57.0,50.8,47.1,86,67,46,29.98,29.85,18,2,21,0.00
2013-3-18,63.6,58.7,52.2,60.5,55.5,48.3,97,89,80,29.93,29.75,14,1,22,0.67
2013-3-19,61.3,50.4,35.8,50.8,32.1,19.2,95,55,25,30.17,29.92,11,2,15,0.00
2013-3-20,57.3,46.9,37.2,32.7,25.2,17.8,74,45,24,30.19,29.97,16,2,19,0.00
2013-3-21,46.1,36.6,26.9,28.5,16.9,10.3,68,46,31,30.11,29.98,12,2,15,0.00
2013-3-22,49.6,42.0,33.0,36.6,25.5,19.0,72,52,41,30.10,30.01,7,1,8,0.00
2013-3-23,54.4,46.8,41.5,48.3,43.2,34.6,98,87,68,30.04,29.78,8,1,10,0.60
2013-3-24,60.4,52.7,40.4,55.0,47.5,26.4,97,83,57,29.78,29.42,17,2,27,0.66
2013-3-25,40.3,36.8,34.2,29.7,27.3,25.3,83,69,58,30.15,29.77,14,2,20,0.00
2013-3-26,40.2,35.9,30.5,30.6,28.4,26.8,88,74,61,30.39,30.14,10,1,12,0.01
2013-3-27,53.2,39.2,26.0,32.4,28.7,24.3,94,69,38,30.44,30.32,11,1,16,0.00
2013-3-28,62.0,44.2,28.4,36.5,31.5,26.1,93,65,33,30.43,30.29,11,1,16,0.00
2013-3-29,59.2,47.1,37.8,41.4,36.7,33.5,92,69,41,30.38,30.23,9,1,12,0.00
2013-3-30,67.8,54.4,42.2,55.8,47.6,39.5,97,80,48,30.24,29.99,10,1,14,0.51
2013-3-31,62.9,58.1,54.1,59.7,56.5,53.3,97,94,78,29.99,29.87,10,0,11,0.54
2013-4-1,67.9,55.6,44.7,55.0,46.5,39.6,98,75,44,30.12,29.92,11,1,17,0.01
2013-4-2,58.8,48.8,40.8,39.8,30.3,25.2,72,50,31,30.27,30.11,13,2,16,0.00
2013-4-3,59.6,51.8,41.5,39.4,27.3,23.4,65,40,27,30.26,30.15,13,2,15,0.00
2013-4-4,50.6,45.4,44.3,44.6,43.3,37.6,95,92,62,30.18,30.00,8,0,11,0.91
2013-4-5,69.2,54.4,44.5,47.0,41.8,32.9,97,68,29,30.14,30.02,14,2,16,0.08
2013-4-6,73.7,56.4,37.3,46.6,41.2,35.7,95,63,32,30.21,30.05,10,1,15,0.00
2013-4-7,74.4,60.4,47.2,52.6,48.0,43.1,89,66,41,30.17,30.02,11,1,11,0.00
2013-4-8,77.7,64.1,49.8,60.6,54.1,47.3,93,72,47,30.10,30.00,11,1,17,0.00
2013-4-9,81.9,67.2,52.4,64.0,56.7,50.4,94,72,46,30.18,30.00,12,1,17,0.00
2013-4-10,84.1,70.7,53.9,64.3,58.8,52.2,95,69,47,30.09,29.85,12,1,12,0.00
2013-4-11,78.8,68.8,61.6,66.6,61.1,57.8,96,77,58,29.88,29.50,15,2,19,1.22
2013-4-12,67.0,57.2,47.5,62.4,45.8,38.7,94,69,38,30.00,29.63,13,1,19,0.08
2013-4-13,75.4,59.1,41.3,49.3,41.7,29.4,96,60,20,30.10,29.99,11,1,12,0.00
2013-4-14,67.6,56.0,45.8,54.9,48.5,42.4,92,77,42,30.05,29.91,12,1,20,0.01
2013-4-15,80.6,67.7,57.7,62.8,58.6,53.6,91,74,51,30.09,29.93,8,0,8,0.00
2013-4-16,80.2,69.7,58.7,69.6,63.8,56.7,94,82,66,30.21,30.09,5,0,9,0.00
2013-4-17,87.1,70.9,62.9,71.4,65.0,61.4,96,83,50,30.19,30.03,26,1,31,0.03
2013-4-18,82.2,72.3,59.4,64.6,60.8,57.7,98,70,45,30.04,29.72,19,3,23,0.00
2013-4-19,75.9,55.5,39.6,66.4,48.5,35.6,95,78,58,30.17,29.65,15,2,20,1.57
2013-4-20,64.9,49.4,34.0,42.3,35.2,30.0,97,64,28,30.31,30.17,11,1,15,0.00
2013-4-21,70.5,54.1,38.6,45.2,39.6,36.2,92,63,30,30.39,30.24,10,1,13,0.00
2013-4-22,73.5,58.1,42.9,50.1,45.1,39.2,94,66,31,30.34,30.13,10,1,11,0.00
2013-4-23,75.3,61.0,44.9,55.2,48.9,40.4,96,68,43,30.22,30.02,9,0,12,0.00
2013-4-24,68.4,57.8,48.3,62.1,53.2,40.7,95,85,74,30.27,30.00,9,1,12,0.24
2013-4-25,70.1,54.4,42.6,44.3,38.8,32.0,82,59,26,30.39,30.26,9,1,11,0.00
2013-4-26,76.6,56.7,38.5,53.0,42.3,35.0,95,65,28,30.40,30.24,8,1,11,0.67
2013-4-27,53.3,53.0,52.7,52.1,51.6,51.3,96,95,95,30.39,30.29,5,1,8,0.37
2013-4-28,62.1,59.7,57.8,61.5,58.6,56.6,98,96,87,30.08,29.93,10,2,10,1.25
2013-4-29,73.0,64.3,54.2,61.3,57.7,52.8,98,81,58,30.04,29.93,6,0,8,0.00
2013-4-30,81.3,64.1,50.4,62.1,55.4,49.4,100,77,42,30.09,29.97,7,0,9,0.00
2013-5-1,77.9,67.5,57.1,62.0,59.1,55.3,97,76,55,30.17,30.07,8,1,10,0.00
2013-5-2,76.8,66.9,55.3,62.0,57.3,52.6,92,72,53,30.17,30.08,10,1,14,0.00
2013-5-3,71.8,65.2,59.6,59.0,56.7,55.5,89,74,59,30.10,29.92,14,1,22,0.10
2013-5-4,59.8,53.8,47.5,56.5,51.8,46.1,97,93,82,29.96,29.86,12,0,13,2.20
2013-5-5,65.4,52.4,47.3,53.6,49.0,46.2,97,89,52,29.95,29.76,9,0,22,0.45
2013-5-6,58.3,52.8,48.7,51.7,49.4,47.5,97,89,70,29.93,29.79,6,0,10,0.00
2013-5-7,73.5,58.3,46.8,56.7,51.5,45.4,97,80,51,30.01,29.91,8,0,10,0.00
2013-5-8,79.8,63.9,50.9,64.7,56.6,49.5,100,80,48,30.08,29.99,7,0,11,0.00
2013-5-9,81.0,67.6,55.0,66.6,60.0,53.8,97,79,53,30.12,30.00,7,0,13,0.00
2013-5-10,72.7,65.2,56.6,63.2,60.0,55.5,97,84,68,30.07,29.93,7,0,10,0.00
2013-5-11,74.0,66.4,55.7,67.2,60.8,51.7,97,83,63,30.02,29.89,9,0,12,0.03
2013-5-12,68.6,57.6,43.9,52.1,41.1,33.2,95,58,30,30.18,30.02,11,1,12,0.00
2013-5-13,71.0,54.2,37.6,45.3,40.5,35.5,96,66,28,30.29,30.16,10,0,11,0.00
2013-5-14,80.7,62.0,42.0,61.4,51.8,40.5,96,72,47,30.26,30.06,12,1,13,0.00
2013-5-15,87.8,69.4,53.6,65.8,57.5,50.6,97,71,30,30.17,29.99,7,0,10,0.00
2013-5-16,84.5,70.0,56.9,67.0,60.3,55.1,95,74,46,30.08,29.95,8,0,12,0.00
2013-5-17,76.7,67.8,60.8,70.5,63.9,57.7,97,87,72,30.08,30.00,3,0,5,0.33
2013-5-18,81.0,72.0,65.4,72.5,68.3,64.4,98,89,69,30.04,29.96,11,0,11,0.04
2013-5-19,71.0,68.2,62.5,70.4,67.2,61.6,98,97,96,30.06,29.97,13,0,13,2.17
2013-5-20,59.0,59.0,58.9,61.7,60.0,58.3,98,98,98,30.05,0.00,0,0,1,0.00
2013-5-21,88.7,73.4,62.5,74.3,66.9,61.6,98,82,54,30.03,29.86,14,3,14,0.00
2013-5-22,70.5,68.0,65.7,69.6,67.0,64.6,98,97,94,29.93,29.89,8,0,8,0.08
2013-5-23,83.6,74.9,0.0,69.2,60.5,56.3,97,63,44,30.06,0.00,8,1,14,0.00
2013-5-24,75.9,66.2,53.4,57.7,52.1,45.2,88,63,36,30.29,30.04,12,1,17,0.00
2013-5-25,80.2,63.0,46.6,53.5,49.2,42.9,99,66,30,30.35,30.19,5,0,8,0.00
2013-5-26,83.4,66.4,49.2,62.1,53.2,47.4,95,67,32,30.29,30.14,4,0,7,0.00
2013-5-27,86.3,70.6,54.6,68.8,60.3,53.2,96,73,40,30.22,30.06,5,0,10,0.00
2013-5-28,87.0,72.7,59.3,66.6,62.3,58.0,97,73,41,30.17,30.06,7,0,11,0.00
2013-5-29,87.2,74.5,61.3,70.4,64.5,59.4,94,73,48,30.18,30.06,7,0,9,0.00
2013-5-30,84.0,74.0,63.8,70.8,67.0,62.0,95,80,63,30.19,30.07,5,0,8,0.00
2013-5-31,84.1,76.1,66.2,73.5,68.3,64.4,95,78,59,30.14,30.01,9,0,10,0.00
2013-6-1,86.2,75.6,67.9,75.5,70.1,66.4,96,84,63,30.05,29.93,6,0,9,0.13
2013-6-2,69.8,67.9,0.0,69.2,66.9,64.5,98,96,91,29.98,29.90,2,0,6,0.82
2013-6-3,85.3,72.8,63.9,71.2,64.6,61.1,97,78,48,30.00,29.89,7,0,9,0.00
2013-6-4,87.3,71.4,57.8,68.2,61.9,56.7,97,75,42,30.03,29.94,7,0,7,0.00
2013-6-5,81.2,68.7,62.4,74.3,66.7,60.7,97,94,76,30.01,29.89,7,0,25,1.73
2013-6-6,84.7,73.4,66.4,75.0,69.6,65.5,98,89,62,29.90,29.73,4,0,7,0.14
2013-6-7,81.4,71.9,67.6,72.3,69.1,66.5,98,91,71,29.87,29.71,4,0,6,0.05
2013-6-8,83.8,72.7,65.0,70.5,66.4,63.7,97,83,53,30.06,29.86,5,0,7,0.00
2013-6-9,80.5,71.4,64.3,74.4,68.8,63.1,97,92,76,30.07,29.94,7,0,8,0.60
2013-6-10,85.2,75.1,67.3,72.3,69.2,66.4,98,83,56,29.97,29.88,6,0,11,0.98
2013-6-11,92.3,78.6,68.4,77.1,72.0,67.2,98,82,53,30.03,29.95,7,0,9,0.01
2013-6-12,94.4,80.6,69.8,79.8,74.1,68.7,98,82,51,30.06,29.93,4,0,6,0.00
2013-6-13,90.3,78.5,68.8,78.8,72.5,66.7,98,83,66,29.94,29.75,12,1,14,0.03
2013-6-14,86.6,74.4,61.5,66.9,63.3,58.3,93,71,42,30.03,29.89,10,1,14,0.00
2013-6-15,87.7,73.8,59.6,70.5,64.7,58.5,97,76,47,30.11,30.01,5,0,6,0.00
2013-6-16,88.2,74.3,64.0,76.4,68.6,62.5,97,84,55,30.12,29.97,7,0,8,0.12
2013-6-17,84.6,71.9,67.8,75.5,69.6,66.9,98,93,69,30.04,29.90,14,0,14,0.45
2013-6-18,82.9,73.1,68.0,74.2,69.8,65.9,98,90,71,29.95,29.86,9,0,13,0.62
2013-6-19,88.6,73.8,64.4,72.6,67.1,63.5,98,82,48,30.08,29.94,8,0,13,0.00
2013-6-20,88.7,73.2,65.4,73.0,67.9,64.3,97,85,53,30.22,30.07,9,0,23,1.44
2013-6-21,86.3,73.7,65.1,72.7,67.9,64.2,98,84,53,30.24,30.13,5,0,10,0.00
2013-6-22,88.5,75.4,64.3,71.1,67.0,63.1,97,78,48,30.22,30.07,7,0,8,0.00
2013-6-23,87.2,73.2,0.0,77.5,69.2,63.3,97,88,59,30.19,30.06,2,0,3,0.27
2013-6-24,89.7,76.6,66.9,75.4,71.0,66.0,97,84,57,30.21,30.06,4,0,4,0.00
2013-6-25,89.6,79.2,70.9,77.4,73.2,69.4,96,83,61,30.14,29.98,6,0,7,0.00
2013-6-26,90.8,80.1,70.6,77.7,73.7,69.4,97,82,59,30.05,29.86,6,0,8,0.00
2013-6-27,87.5,76.7,71.7,79.9,73.5,69.6,97,90,75,29.93,29.79,6,0,15,0.33
2013-6-28,89.2,77.1,70.2,80.2,72.2,68.8,98,86,58,29.84,29.66,11,0,16,0.04
2013-6-29,88.6,76.7,68.5,74.5,68.0,61.3,98,78,41,29.71,29.64,6,0,8,0.02
2013-6-30,87.0,74.3,62.9,71.3,66.3,61.7,97,78,49,29.79,29.68,7,0,9,0.00
2013-7-1,84.4,73.3,62.9,72.8,67.1,61.4,96,82,57,29.91,29.77,7,0,8,0.00
2013-7-2,86.6,75.4,65.9,72.7,68.0,64.6,96,79,55,30.04,29.89,7,0,7,0.00
2013-7-3,78.7,72.2,68.1,73.5,69.2,65.9,97,90,79,30.13,30.03,6,0,7,0.04
2013-7-4,75.3,71.2,68.8,73.1,69.9,67.6,98,96,89,30.13,30.03,3,0,4,0.84
2013-7-5,75.7,71.9,69.4,72.8,70.6,68.5,98,96,89,30.16,30.08,3,0,5,0.16
2013-7-6,71.7,70.4,69.1,70.9,69.7,68.5,98,98,96,30.14,30.08,5,0,8,1.36
2013-7-7,82.3,74.5,0.0,76.1,72.2,68.8,99,92,79,30.15,30.07,5,0,6,0.44
2013-7-8,87.8,77.5,71.7,77.2,73.2,70.8,98,88,65,30.19,30.08,3,0,4,0.00
2013-7-9,90.7,80.2,73.2,79.3,75.1,72.0,97,86,62,30.16,30.03,4,0,6,0.00
2013-7-10,89.9,78.1,71.5,80.7,74.7,70.4,97,90,72,30.08,29.89,11,0,19,0.85
2013-7-11,87.3,76.2,69.9,78.9,72.5,69.1,98,89,72,29.98,29.85,6,0,9,0.09
2013-7-12,87.8,76.6,68.2,73.4,69.0,61.7,96,79,53,29.98,29.89,11,1,14,0.00
2013-7-13,85.8,73.5,60.9,73.6,67.7,59.8,97,83,64,30.06,29.95,6,0,9,0.00
2013-7-14,84.2,75.5,69.7,76.6,72.3,68.2,97,90,71,30.18,30.04,8,0,9,0.48
2013-7-15,89.6,78.6,71.5,75.5,71.8,70.0,97,81,55,30.27,30.17,7,0,10,0.26
2013-7-16,92.1,79.3,68.9,78.1,72.8,68.0,98,82,53,30.31,30.21,7,0,8,0.01
2013-7-17,95.5,79.9,70.8,79.1,72.7,66.9,97,81,49,30.29,30.13,7,0,18,0.00
2013-7-18,92.3,80.2,71.8,78.0,73.1,70.6,96,81,55,30.18,30.03,7,0,9,0.00
2013-7-19,92.6,80.8,71.1,78.4,73.9,69.9,97,81,55,30.11,29.94,4,0,6,0.00
2013-7-20,91.4,79.2,72.2,78.5,74.2,71.0,97,86,56,30.02,29.89,4,0,7,0.18
2013-7-21,87.4,75.1,71.3,77.8,72.5,70.1,98,92,67,30.01,29.93,8,0,9,0.74
2013-7-22,83.2,76.1,70.8,76.9,72.1,69.9,98,88,71,29.98,29.86,9,0,18,0.00
2013-7-23,80.0,75.3,71.0,75.6,72.5,69.6,96,91,84,29.94,29.82,7,0,9,0.13
2013-7-24,82.8,76.2,71.0,77.5,73.1,69.3,97,91,78,29.91,29.82,4,0,5,0.06
2013-7-25,88.3,76.1,65.1,73.5,68.0,63.6,96,77,57,30.03,29.90,6,0,10,0.00
2013-7-26,88.3,74.9,62.4,73.5,67.5,61.2,97,79,54,30.07,29.97,4,0,7,0.00
2013-7-27,84.0,74.7,68.0,75.3,70.1,66.6,96,86,67,29.98,29.87,5,0,7,0.00
2013-7-28,85.0,74.6,66.8,72.4,68.2,61.8,96,81,58,30.08,29.92,5,0,7,0.00
2013-7-29,82.5,68.7,58.1,68.8,62.1,56.7,97,81,57,30.19,30.07,5,0,8,0.00
2013-7-30,89.2,74.1,61.1,74.3,66.6,60.0,97,80,48,30.24,30.08,6,0,6,0.06
2013-7-31,79.9,73.3,68.6,75.1,71.2,67.5,98,93,82,30.13,29.95,4,0,5,0.56
2013-8-1,88.6,77.8,69.8,75.1,71.7,68.0,97,83,57,30.00,29.93,9,0,10,0.00
2013-8-2,89.5,74.5,65.2,72.7,67.0,60.6,98,80,40,30.04,29.97,4,0,6,0.00
2013-8-3,80.1,73.4,65.3,75.4,70.1,64.1,97,90,80,30.06,29.99,3,0,4,0.00
2013-8-4,89.3,77.8,70.1,75.6,70.5,64.5,97,80,54,30.07,30.00,7,0,12,0.00
2013-8-5,86.0,74.0,65.2,71.4,66.1,61.5,93,78,48,30.07,29.97,6,0,6,0.00
2013-8-6,83.9,74.6,67.9,77.4,71.3,66.2,97,90,73,30.00,29.95,3,0,7,0.80
2013-8-7,83.1,74.9,70.9,78.2,73.3,70.0,98,95,81,30.01,29.94,3,0,7,0.16
2013-8-8,87.9,75.3,70.1,80.4,72.9,69.5,98,93,71,30.03,29.95,5,0,6,0.13
2013-8-9,90.5,78.9,69.7,79.4,74.1,68.8,98,86,65,30.06,29.96,5,0,8,0.00
2013-8-10,85.8,76.4,72.5,78.7,74.6,71.3,97,94,75,30.12,30.05,7,0,9,0.79
2013-8-11,86.6,75.9,72.2,79.4,73.9,71.2,97,94,73,30.15,30.05,6,0,11,0.89
2013-8-12,88.2,75.9,71.2,80.2,74.0,70.6,98,94,74,30.11,29.96,12,0,12,0.85
2013-8-13,86.5,76.7,72.4,76.8,72.9,70.5,98,89,66,29.98,29.88,5,0,7,0.38
2013-8-14,83.7,73.2,0.0,70.9,66.3,60.0,95,80,52,30.05,29.93,9,1,10,0.00
2013-8-15,79.0,69.3,60.3,69.2,63.5,58.3,95,82,66,30.08,30.01,7,0,8,0.00
2013-8-16,74.1,68.5,62.0,66.4,64.0,60.2,94,86,73,30.11,30.04,6,0,8,0.00
2013-8-17,73.2,68.9,66.3,67.6,65.9,64.4,97,90,80,30.13,30.06,4,0,6,0.20
2013-8-18,78.1,71.0,66.3,71.3,68.1,65.4,98,91,74,30.17,30.09,5,0,8,0.08
2013-8-19,83.0,73.1,69.1,74.7,70.5,67.9,98,92,71,30.14,30.03,5,0,5,0.10
2013-8-20,80.6,73.9,70.4,75.8,71.8,69.0,98,93,82,30.16,30.07,4,0,5,0.70
2013-8-21,71.8,71.2,70.4,71.2,70.5,69.5,98,98,97,30.14,30.12,0,0,0,0.00
2013-8-22,84.1,76.4,71.6,76.6,73.7,70.7,97,92,76,30.08,30.04,9,0,16,0.01
2013-8-23,89.4,76.6,69.6,79.1,71.9,68.1,98,86,62,30.10,29.97,15,0,19,0.00
2013-8-24,87.9,76.1,65.6,76.5,70.9,64.7,98,85,62,30.23,30.06,7,0,8,0.08
2013-8-25,85.8,74.1,65.4,71.0,66.8,64.2,98,80,50,30.34,30.22,6,0,8,0.01
2013-8-26,85.5,71.8,62.0,71.4,65.3,61.1,98,82,53,30.32,30.15,6,0,6,0.00
2013-8-27,87.9,73.5,63.8,76.2,68.6,62.6,98,86,57,30.18,30.04,3,0,4,0.00
2013-8-28,90.5,76.7,67.5,77.5,71.7,66.4,98,86,60,30.08,29.98,4,0,6,0.00
2013-8-29,92.7,79.3,68.6,79.4,73.6,67.7,98,84,59,30.05,29.93,6,0,8,0.00
2013-8-30,85.6,75.5,71.9,79.8,73.6,71.0,98,94,81,30.00,29.92,11,0,14,0.41
2013-8-31,91.7,78.5,71.9,80.3,74.2,70.4,98,88,60,29.97,29.84,7,0,8,0.00
2013-9-1,89.0,77.2,72.4,79.4,73.3,71.2,98,89,58,29.93,29.83,5,0,10,0.41
2013-9-2,83.8,76.9,0.0,75.8,72.8,69.2,97,87,72,29.98,29.85,3,0,5,0.00
2013-9-3,90.3,78.1,67.4,75.2,70.7,65.6,98,80,48,30.02,29.87,9,0,9,0.01
2013-9-4,87.1,73.8,61.8,73.6,66.2,60.9,98,80,53,30.13,30.00,7,0,9,0.00
2013-9-5,86.9,72.1,61.3,71.8,65.7,60.4,98,82,53,30.16,30.08,7,0,7,0.00
2013-9-6,89.6,73.0,60.7,73.4,66.4,59.8,98,82,48,30.16,30.05,7,0,8,0.00
2013-9-7,88.3,74.2,62.9,76.2,68.7,62.0,98,85,60,30.13,29.99,7,0,7,0.00
2013-9-8,90.3,75.8,66.8,76.1,70.3,65.9,98,85,51,30.03,29.93,5,0,7,0.00
2013-9-9,90.6,77.0,69.2,76.6,71.8,68.0,97,85,57,30.10,30.00,6,0,7,0.00
2013-9-10,90.2,78.0,68.9,75.7,71.5,68.0,98,83,51,30.20,30.10,5,0,6,0.00
2013-9-11,90.7,76.9,67.2,75.4,69.7,66.3,98,81,47,30.23,30.09,0,0,0,0.00
2013-9-12,90.3,76.0,68.5,75.5,70.4,66.8,97,84,57,30.09,29.91,8,0,10,0.01
2013-9-13,82.6,71.4,60.4,68.6,61.4,53.6,98,74,39,29.98,29.88,8,0,12,0.01
2013-9-14,79.7,63.9,0.0,62.6,55.4,48.2,96,76,42,30.09,29.98,9,1,13,0.00
2013-9-15,83.4,67.5,53.7,69.7,61.2,52.8,98,82,53,30.16,30.08,5,0,7,0.00
2013-9-16,85.2,69.8,58.9,71.3,63.6,58.1,98,83,55,30.18,30.08,0,0,0,0.00
2013-9-17,83.3,72.1,64.2,70.2,65.8,61.8,94,82,63,30.20,30.10,7,0,8,0.00
2013-9-18,80.9,69.9,62.3,69.5,64.5,60.8,95,84,63,30.22,30.10,0,0,0,0.00
2013-9-19,85.2,71.6,60.5,72.3,65.6,59.6,98,83,58,30.19,30.04,0,0,0,0.00
2013-9-20,86.1,72.9,63.2,72.0,66.5,62.3,98,82,53,30.07,29.86,1,0,1,0.00
2013-9-21,73.0,67.5,57.9,69.9,65.8,56.4,98,94,83,29.86,29.74,10,0,12,1.87
2013-9-22,78.7,63.5,52.4,61.9,56.4,51.6,98,80,46,29.93,29.84,13,1,14,0.01
2013-9-23,80.6,65.0,52.1,66.5,58.9,51.0,98,83,54,30.01,29.92,5,0,7,0.00
2013-9-24,69.5,64.1,57.0,66.5,62.5,56.2,98,94,88,30.02,29.88,4,0,5,0.01
2013-9-25,69.5,67.1,65.2,68.0,66.2,64.3,98,97,94,29.88,29.82,4,0,5,0.95
2013-9-26,81.0,69.8,62.0,70.0,65.8,60.6,98,88,56,30.03,29.88,8,0,10,0.02
2013-9-27,81.2,66.3,56.5,66.4,60.4,55.7,98,83,50,30.15,30.03,7,0,7,0.00
2013-9-28,79.2,65.7,55.6,64.5,59.5,54.8,98,83,53,30.22,30.09,5,0,6,0.00
2013-9-29,74.7,63.9,53.7,64.7,59.2,52.9,98,86,60,30.16,30.02,4,0,5,0.01
2013-9-30,76.6,64.9,55.9,64.8,59.4,55.1,100,84,58,30.10,29.99,5,0,7,0.00
2013-10-1,82.1,67.8,56.9,69.8,62.9,56.0,97,86,57,30.16,30.04,7,0,7,0.00
2013-10-2,83.8,70.5,61.5,71.3,65.4,60.6,98,85,55,30.17,30.05,4,0,4,0.00
2013-10-3,85.3,72.1,63.1,70.1,66.1,61.6,98,83,55,30.12,30.03,6,0,8,0.00
2013-10-4,83.5,69.3,59.4,72.5,65.3,58.5,98,88,64,30.16,30.07,7,0,7,0.00
2013-10-5,87.8,72.1,62.1,73.1,66.8,61.2,98,85,58,30.12,29.97,4,0,6,0.00
2013-10-6,80.8,70.0,57.4,72.2,66.1,55.2,98,88,68,29.98,29.80,9,0,11,0.26
2013-10-7,71.0,60.8,53.1,57.2,53.4,49.7,100,78,50,30.08,29.90,12,1,14,0.01
2013-10-8,75.7,62.3,49.9,62.6,54.1,47.2,95,76,52,30.14,30.06,12,1,13,0.00
2013-10-9,78.1,65.2,55.3,66.6,59.2,54.2,97,83,56,30.20,30.10,5,0,5,0.00
2013-10-10,80.4,65.2,56.9,66.1,60.2,55.8,97,85,54,30.17,30.03,6,0,6,0.00
2013-10-11,79.8,62.1,51.0,63.5,56.5,50.2,100,84,47,30.13,30.00,5,0,7,0.00
2013-10-12,82.3,62.9,50.9,65.1,56.7,50.1,98,83,46,30.14,30.05,5,0,8,0.00
2013-10-13,82.1,65.7,52.6,64.7,58.1,51.8,100,79,46,30.24,30.14,8,0,11,0.00
2013-10-14,59.6,56.3,54.4,57.6,55.1,53.5,97,96,93,30.23,30.19,0,0,0,0.00
2013-10-23,37.7,37.6,37.4,36.1,36.0,35.8,94,94,94,30.17,30.16,0,0,0,0.00
2013-10-24,58.7,46.8,36.5,46.6,40.9,35.2,96,81,56,30.34,30.16,6,0,8,0.00
2013-10-25,54.7,41.5,29.2,36.1,30.5,27.0,93,68,37,30.50,30.34,13,1,15,0.00
2013-10-26,58.5,43.0,27.6,43.3,34.3,26.1,96,75,35,30.39,30.18,8,0,11,0.00
2013-10-27,62.0,54.2,47.1,56.7,50.0,43.1,96,86,73,30.18,30.11,4,0,5,0.00
2013-10-28,62.2,55.6,49.5,59.1,54.3,48.4,98,95,89,30.29,30.14,2,0,3,0.04
2013-10-29,72.8,60.7,53.6,62.9,57.2,52.8,100,89,65,30.34,30.22,6,0,7,0.00
2013-10-30,78.2,63.2,54.0,63.3,57.9,53.2,100,85,48,30.29,30.12,8,0,10,0.00
2013-10-31,73.9,66.0,59.0,67.1,62.2,57.8,96,88,73,30.14,29.72,14,1,17,0.15
2013-11-1,72.7,62.9,48.2,65.4,55.7,46.6,97,79,47,29.86,29.71,8,1,11,0.25
2013-11-2,66.1,52.0,43.0,51.9,43.9,38.6,98,77,38,30.16,29.85,9,0,17,0.00
2013-11-3,62.5,48.5,38.7,43.0,40.0,31.6,95,76,32,30.34,30.14,10,0,10,0.00
2013-11-4,66.2,50.9,35.9,46.2,40.8,34.6,98,72,41,30.43,30.34,12,1,13,0.00
2013-11-5,65.3,53.9,44.5,49.3,43.7,39.5,92,71,46,30.46,30.30,6,0,8,0.00
2013-11-6,71.2,62.4,45.6,61.1,56.5,43.1,95,81,69,30.31,30.07,14,0,14,0.14
2013-11-7,62.5,51.4,38.1,61.2,42.7,32.8,97,74,43,30.33,30.04,16,1,16,0.30
2013-11-8,60.1,43.4,30.4,35.4,31.4,25.6,100,68,28,30.44,30.29,15,1,15,0.00
2013-11-9,58.0,45.2,31.3,42.9,37.2,29.8,100,76,47,30.38,30.26,7,0,7,0.00
2013-11-10,70.5,53.4,41.4,49.1,41.4,34.8,96,68,28,30.36,30.25,11,0,13,0.00
2013-11-11,67.7,49.1,32.9,41.3,34.4,23.7,94,63,19,30.35,30.18,5,0,6,0.00
2013-11-12,52.4,41.3,32.6,45.4,30.0,17.0,92,66,39,30.60,30.19,19,2,21,0.00
2013-11-13,48.9,35.2,23.8,25.2,20.8,16.0,87,59,27,30.70,30.52,16,1,16,0.00
2013-11-14,57.9,38.2,22.4,31.4,25.4,20.4,94,66,26,30.55,30.31,6,0,9,0.00
2013-11-15,55.7,44.2,31.7,49.5,39.8,27.3,97,85,65,30.31,30.16,5,0,7,0.03
2013-11-16,63.7,56.8,48.8,58.5,54.0,47.8,97,91,82,30.21,30.08,9,0,10,0.00
2013-11-17,68.5,65.2,62.7,67.6,62.5,56.6,98,91,79,30.08,29.85,15,1,26,0.80
2013-11-18,66.4,58.1,46.8,58.8,43.3,33.8,96,61,32,30.19,29.91,12,2,16,0.00
2013-11-19,56.5,47.0,38.7,35.0,30.8,24.1,78,55,30,30.25,30.14,20,2,20,0.00
2013-11-20,59.9,46.9,31.7,42.2,35.2,29.5,93,67,37,30.33,30.20,7,0,10,0.00
2013-11-21,63.0,58.0,51.3,52.9,49.3,40.5,84,73,64,30.36,30.26,5,0,6,0.00
2013-11-22,59.8,57.3,54.5,58.4,55.4,50.1,100,93,84,30.32,30.21,9,0,12,0.02
2013-11-23,54.5,46.4,32.6,50.1,38.1,22.0,87,73,52,30.46,30.23,15,2,17,0.00
2013-11-24,40.8,32.9,25.6,22.4,14.2,7.3,68,48,25,30.62,30.45,19,3,22,0.00
2013-11-25,44.1,36.6,27.9,36.2,24.2,14.2,95,64,33,30.50,30.21,5,0,8,0.34
2013-11-26,44.8,40.4,35.9,43.8,38.7,33.3,97,93,85,30.22,29.81,15,2,16,1.31
2013-11-27,37.3,32.7,24.0,34.6,23.4,15.5,92,69,55,30.41,29.88,17,3,18,0.01
2013-11-28,45.1,30.7,19.1,28.7,21.7,15.5,96,71,42,30.56,30.40,5,0,7,0.00
2013-11-29,55.2,36.5,23.4,33.3,26.9,21.7,94,73,35,30.64,30.50,7,0,8,0.00
2013-11-30,56.7,39.3,26.4,36.8,30.1,24.7,94,73,36,30.57,30.35,6,0,6,0.00
2013-12-1,54.2,41.6,27.8,42.7,35.2,26.3,95,79,56,30.35,30.02,4,0,5,0.00
2013-12-2,50.1,48.0,44.9,50.0,46.6,42.3,100,95,82,30.02,29.82,1,0,1,0.09
2013-12-3,56.3,52.9,49.0,54.3,51.7,48.2,98,96,92,29.89,29.82,4,0,5,0.00
2013-12-4,74.0,63.5,54.8,64.4,59.6,53.7,98,88,68,29.97,29.85,12,1,17,0.01
2013-12-5,75.1,67.4,56.4,68.7,64.5,53.4,97,90,78,30.01,29.89,11,1,13,0.05
2013-12-6,56.4,46.3,38.7,53.8,44.5,35.3,97,93,87,30.28,29.92,13,1,15,0.90
2013-12-7,40.8,38.3,36.1,36.2,34.6,33.0,91,87,82,30.46,30.27,13,3,18,0.00
2013-12-8,49.2,44.6,37.9,48.7,43.7,35.6,98,97,90,30.34,30.11,11,0,11,0.91
2013-12-9,52.6,47.4,39.9,49.0,45.1,38.5,98,92,83,30.19,30.05,12,1,13,0.27
2013-12-10,42.0,36.2,27.4,39.0,32.1,26.2,96,86,61,30.44,30.04,14,1,16,0.20
2013-12-11,50.9,35.7,23.6,36.0,28.5,22.1,96,78,43,30.53,30.39,7,0,8,0.00
2013-12-12,44.9,34.8,26.8,28.6,23.0,18.5,85,64,35,30.60,30.47,10,1,12,0.00
2013-12-13,45.8,35.5,22.2,34.0,26.1,20.2,93,70,48,30.49,30.17,5,0,6,0.00
2013-12-14,52.6,47.2,39.9,50.8,44.7,32.4,100,91,73,30.17,29.82,13,1,19,0.48
2013-12-15,41.3,36.4,33.9,38.9,31.9,29.6,92,84,77,30.29,29.96,14,2,14,0.01
2013-12-16,51.6,38.3,30.3,40.3,33.3,28.3,99,83,62,30.33,30.18,6,0,9,0.00
2013-12-17,61.8,43.9,29.1,43.2,34.5,28.1,97,73,44,30.31,30.09,12,1,19,0.00
2013-12-18,51.2,37.2,26.7,32.1,28.3,24.7,94,73,38,30.42,30.30,6,0,7,0.00
2013-12-19,61.0,41.0,26.9,37.4,31.5,25.1,100,73,34,30.35,30.18,7,0,10,0.00
2013-12-20,63.4,51.4,36.4,53.7,45.1,33.4,91,80,64,30.20,30.04,3,0,4,0.00
2013-12-21,73.7,65.8,57.3,67.8,62.4,53.5,98,89,81,30.04,29.79,14,1,23,0.18
2013-12-22,73.8,58.9,55.2,67.7,56.7,53.8,98,92,75,30.09,29.76,23,1,24,1.30
2013-12-23,55.2,42.3,32.9,53.8,37.5,29.1,96,83,72,30.41,30.06,14,2,16,0.01
2013-12-24,38.7,32.1,25.7,26.3,21.4,17.1,80,65,44,30.56,30.43,14,2,14,0.00
2013-12-25,47.8,33.2,20.8,31.7,24.7,18.2,92,73,46,30.52,30.36,3,0,5,0.00
2013-12-26,50.8,36.5,25.3,35.8,28.9,23.7,94,76,42,30.46,30.34,7,0,9,0.00
2013-12-27,55.7,37.0,24.9,32.7,27.8,22.2,100,73,28,30.53,30.40,6,0,7,0.00
2013-12-28,43.3,37.2,29.2,41.0,34.5,26.7,100,90,68,30.44,29.99,5,0,5,0.63
2013-12-29,50.4,43.2,37.4,45.5,41.1,36.1,100,93,73,30.11,29.93,8,0,8,0.14
2013-12-30,41.6,39.5,37.1,40.7,35.1,32.5,97,84,76,30.29,30.10,8,0,11,0.00
2013-12-31,44.4,35.8,29.6,33.3,29.4,27.5,95,78,53,30.51,30.29,10,0,13,0.00
2014-1-1,50.7,36.0,25.9,36.0,30.4,24.4,96,82,51,30.41,30.12,5,0,6,0.00
2014-1-2,47.1,36.0,23.3,46.3,32.0,13.7,98,86,67,30.34,29.87,23,3,27,0.25